I-INSPIRE II (42731 NORAD) Tracking and Keplerian Element Data

This shows tracking and keplerian element data for the satellite.

Feedback or suggestion? Click here.




ElementValue
Catalog42731
NameI-INSPIRE II
Epoch Orbit8592
Epoch Day328.65367517
Epoch Year2018
RAAN233.0809
Inclination51.6195
Eccentricity0.0005495
Argument of Perigee228.6465
Mean Anonmoly131.7518
Mean Motion16.4630636
Decay Rate0.20606057
L11 42731U 98067ML 18328.65367517 .20606057 12514-4 45736-3 0 9990
L22 42731 51.6195 233.0809 0005495 228.6465 131.7518 16.46306360 85922



Live tracking and technical data element details for I-INSPIRE II (NORAD 42731). I-INSPIRE II can be tracked NOW for your location showing map with azimuth and elevation plus other details from your city location.







IsCatalogInMostPopularTable: catalog: 42731, numindb: 625
Update: records affected: 1



GetName: 42731 I-INSPIRE II

Hit Count: updated at: Mon, 28 Nov 2022 04:00:52 GMT